Вернуться в каталог

AIRSAT-05

АктивенНаукаSSO
NORAD 65259·PAYLOAD·🇨🇳 China
Это название спутника еще не подтверждено официальными источниками.

Запущен Aug 19, 2025 с Jiuquan Satellite Launch Center

Loading…

Ближайшие Пролёты (ближайшие 24 часа)

TLE

СвежийSource: Space-Track

Эпоха: Sep 14, 2026, 08:38 UTC

1 65259U 25180A   26257.36017205  .00003161  00000-0  12879-3 0  9990
2 65259  97.5307  26.5208 0011540   9.6976 350.4482 15.25180574 59379

Отслеживайте AIRSAT-05 в реальном времени с AllMySat

Download on the App Store